This demonstration page uses our WeatherBlox Daily Observations layout. Learn more.

Left ArrowRight Arrow

39.01783, -85.05884

Hourly Observations for May 14, 2019

Temp ( °F °C ) Dew Point ( °F °C ) Humidity (%) Winds ( mph kmh ) Pressure ( in mb ) Visibility ( mi km ) Precip ( " mm )
12:52 am 00:52 Partly Cloudy 50 10 45 7.2 83 83 W 3 6 29.99 1016 10 16 0.00 0.00
1:52 am 01:52 Clear 48 8.9 44 6.7 86 86 W 3 6 29.98 1015 10 16 0.00 0.00
2:52 am 02:52 Clear 44 6.7 42 5.6 93 93 WSW 3 6 29.99 1016 7 11 0.00 0.00
3:52 am 03:52 Partly Cloudy 45 7.2 43 6.1 93 93 W 3 6 29.98 1015 7 11 0.00 0.00
4:52 am 04:52 Mostly Clear with Mist and Fog 45 7.2 42 5.6 90 90 Calm 30.00 1016 6 10 0.00 0.00
5:52 am 05:52 Mostly Cloudy with Mist and Fog 44 6.7 41 5 89 89 WNW 8 13 30.01 1016 6 10 0.00 0.00
6:52 am 06:52 Partly Cloudy with Mist and Fog 41 5 39 3.9 93 93 Calm 30.03 1017 6 10 0.00 0.00
7:52 am 07:52 Mostly Sunny 50 10 45 7.2 83 83 Calm 30.05 1018 7 11 0.00 0.00
8:52 am 08:52 Mostly Sunny 56 13.3 46 7.8 70 70 N 6 9 30.06 1018 10 16 0.00 0.00
9:52 am 09:52 Sunny 57 13.9 45 7.2 64 64 N 5 7 30.07 1018 10 16 0.00 0.00
10:52 am 10:52 Mostly Sunny 60 15.6 42 5.6 52 52 N 5 7 30.07 1018 10 16 0.00 0.00
11:52 am 11:52 Mostly Sunny 62 16.7 39 3.9 43 43 VRB 3 6 30.07 1018 10 16 0.00 0.00
12:52 pm 12:52 Partly Cloudy 64 17.8 37 2.8 37 37 VRB 3 6 30.06 1018 10 16 0.00 0.00
1:52 pm 13:52 Partly Cloudy 64 17.8 34 1.1 33 33 VRB 3 6 30.04 1017 10 16 0.00 0.00
2:52 pm 14:52 Partly Cloudy 66 18.9 36 2.2 33 33 Calm 30.04 1017 10 16 0.00 0.00
3:52 pm 15:52 Mostly Cloudy 68 20 37 2.8 32 32 N 3 6 30.02 1017 10 16 0.00 0.00
4:52 pm 16:52 Mostly Cloudy 67 19.4 38 3.3 35 35 VRB 5 7 30.00 1016 10 16 0.00 0.00
5:52 pm 17:52 Mostly Cloudy 67 19.4 39 3.9 36 36 W 3 6 30.00 1016 10 16 0.00 0.00
6:52 pm 18:52 Mostly Cloudy 64 17.8 42 5.6 45 45 W 6 9 30.00 1016 10 16 0.00 0.00
7:52 pm 19:52 Mostly Cloudy 64 17.8 40 4.4 41 41 Calm 29.99 1016 10 16 0.00 0.00
8:52 pm 20:52 Mostly Clear 59 15 40 4.4 49 49 SW 3 6 30.00 1016 10 16 0.00 0.00
9:52 pm 21:52 Mostly Clear 57 13.9 41 5 55 55 Calm 30.01 1016 10 16 0.00 0.00
10:52 pm 22:52 Mostly Clear 55 12.8 42 5.6 62 62 S 3 6 30.02 1017 10 16 0.00 0.00
11:52 pm 23:52 Mostly Clear 49 9.4 44 6.7 83 83 S 5 7 30.02 1017 10 16 0.00 0.00

Powered by AerisWeather